Hourly Weather Kozuchowka

Today, 29 October, Thursday

Time Temperature Precipitation Wind Pressure Humidity
00:00 +12°C° 0 mm 2 mps 746 mmHg 89%
01:00 +10°C° 0 mm 2 mps 745 mmHg 91%
02:00 +10°C° 0 mm 2 mps 745 mmHg 91%
03:00 +9°C° 0 mm 2 mps 745 mmHg 90%
04:00 +9°C° 0 mm 2 mps 745 mmHg 90%
05:00 +9°C° 0.1 mm 2 mps 745 mmHg 89%
06:00 +9°C° 0.1 mm 2 mps 745 mmHg 88%
07:00 +9°C° 0 mm 3 mps 745 mmHg 87%
08:00 +10°C° 0 mm 3 mps 745 mmHg 82%
09:00 +11°C° 0 mm 3 mps 745 mmHg 76%
10:00 +12°C° 0 mm 4 mps 745 mmHg 71%
11:00 +13°C° 0 mm 4 mps 745 mmHg 68%
12:00 +13°C° 0 mm 4 mps 745 mmHg 65%
13:00 +14°C° 0 mm 4 mps 744 mmHg 63%
14:00 +13°C° 0 mm 3 mps 744 mmHg 66%
15:00 +13°C° 0 mm 3 mps 744 mmHg 68%
16:00 +13°C° 0 mm 2 mps 744 mmHg 71%
17:00 +12°C° 0.4 mm 3 mps 744 mmHg 76%
18:00 +11°C° 0.4 mm 4 mps 745 mmHg 82%
19:00 +10°C° 0.4 mm 4 mps 745 mmHg 87%
20:00 +10°C° 0.2 mm 4 mps 745 mmHg 85%
21:00 +10°C° 0.2 mm 4 mps 745 mmHg 84%
22:00 +10°C° 0.2 mm 4 mps 746 mmHg 82%
23:00 +8°C° 0 mm 4 mps 746 mmHg 82%

Tomorrow, 30 October, Friday

Time Temperature Precipitation Wind Pressure Humidity
00:00 +8°C° 0 mm 4 mps 746 mmHg 81%
01:00 +7°C° 0 mm 4 mps 746 mmHg 80%
02:00 +7°C° 0 mm 4 mps 747 mmHg 82%
03:00 +6°C° 0 mm 4 mps 747 mmHg 85%
04:00 +5°C° 0 mm 4 mps 747 mmHg 87%
05:00 +5°C° 0 mm 4 mps 747 mmHg 88%
06:00 +5°C° 0 mm 4 mps 747 mmHg 90%
07:00 +5°C° 0 mm 4 mps 748 mmHg 91%
08:00 +6°C° 0 mm 4 mps 748 mmHg 87%
09:00 +7°C° 0 mm 4 mps 748 mmHg 83%
10:00 +8°C° 0 mm 4 mps 748 mmHg 78%
11:00 +8°C° 0 mm 4 mps 748 mmHg 75%
12:00 +10°C° 0 mm 4 mps 748 mmHg 72%
13:00 +10°C° 0 mm 4 mps 747 mmHg 69%
14:00 +10°C° 0 mm 3 mps 747 mmHg 71%
15:00 +9°C° 0 mm 2 mps 747 mmHg 73%
16:00 +9°C° 0 mm 2 mps 746 mmHg 74%
17:00 +9°C° 0.1 mm 2 mps 746 mmHg 77%
18:00 +9°C° 0.1 mm 2 mps 746 mmHg 80%
19:00 +8°C° 0.1 mm 2 mps 746 mmHg 83%
20:00 +9°C° 0.4 mm 1 mps 746 mmHg 86%
21:00 +9°C° 0.4 mm 1 mps 746 mmHg 89%
22:00 +9°C° 0.4 mm 1 mps 746 mmHg 92%
23:00 +9°C° 0.1 mm 1 mps 747 mmHg 92%

Day after tomorrow, 31 October, Saturday

Time Temperature Precipitation Wind Pressure Humidity
00:00 +9°C° 0.1 mm 1 mps 747 mmHg 92%
01:00 +8°C° 0.1 mm 2 mps 747 mmHg 92%
02:00 +7°C° 0 mm 2 mps 748 mmHg 91%
03:00 +7°C° 0 mm 2 mps 748 mmHg 91%
04:00 +6°C° 0 mm 2 mps 748 mmHg 90%
05:00 +6°C° 0 mm 2 mps 749 mmHg 91%
06:00 +6°C° 0 mm 2 mps 749 mmHg 92%
07:00 +5°C° 0 mm 2 mps 750 mmHg 92%
08:00 +5°C° 0 mm 3 mps 750 mmHg 88%
09:00 +8°C° 0 mm 3 mps 751 mmHg 84%
10:00 +9°C° 0 mm 3 mps 751 mmHg 81%
11:00 +9°C° 0 mm 3 mps 751 mmHg 80%
12:00 +9°C° 0 mm 3 mps 751 mmHg 80%
13:00 +9°C° 0 mm 3 mps 751 mmHg 79%
14:00 +8°C° 0 mm 3 mps 751 mmHg 80%
15:00 +8°C° 0 mm 2 mps 752 mmHg 81%
16:00 +7°C° 0 mm 2 mps 752 mmHg 81%
17:00 +7°C° 0 mm 2 mps 752 mmHg 84%
18:00 +6°C° 0 mm 2 mps 752 mmHg 86%
19:00 +7°C° 0 mm 1 mps 753 mmHg 89%
20:00 +7°C° 0 mm 1 mps 753 mmHg 90%
21:00 +7°C° 0 mm 1 mps 753 mmHg 91%
22:00 +6°C° 0 mm 1 mps 753 mmHg 91%
23:00 +6°C° 0 mm 1 mps 753 mmHg 92%

1 November, Sunday

Time Temperature Precipitation Wind Pressure Humidity
00:00 +6°C° 0 mm 1 mps 753 mmHg 92%
01:00 +5°C° 0 mm 0 mps 753 mmHg 93%
02:00 +5°C° 0 mm 0 mps 752 mmHg 93%
03:00 +5°C° 0 mm 0 mps 752 mmHg 94%
04:00 +4°C° 0 mm 0 mps 752 mmHg 94%
05:00 +5°C° 0 mm 1 mps 752 mmHg 94%
06:00 +5°C° 0 mm 1 mps 752 mmHg 94%
07:00 +5°C° 0 mm 1 mps 752 mmHg 94%
08:00 +7°C° 0 mm 1 mps 752 mmHg 89%
09:00 +7°C° 0 mm 2 mps 752 mmHg 84%
10:00 +8°C° 0 mm 2 mps 752 mmHg 78%
11:00 +9°C° 0 mm 3 mps 751 mmHg 74%
12:00 +10°C° 0 mm 3 mps 751 mmHg 70%
13:00 +10°C° 0 mm 3 mps 751 mmHg 66%
14:00 +9°C° 0 mm 3 mps 750 mmHg 70%
15:00 +9°C° 0 mm 3 mps 750 mmHg 73%
16:00 +8°C° 0 mm 3 mps 749 mmHg 77%
17:00 +7°C° 0 mm 3 mps 749 mmHg 79%
18:00 +7°C° 0 mm 3 mps 749 mmHg 82%
19:00 +5°C° 0 mm 3 mps 749 mmHg 84%
20:00 +5°C° 0 mm 3 mps 748 mmHg 84%
21:00 +5°C° 0 mm 3 mps 748 mmHg 84%
22:00 +5°C° 0 mm 3 mps 748 mmHg 83%
23:00 +5°C° 0 mm 3 mps 748 mmHg 84%

2 November, Monday

Time Temperature Precipitation Wind Pressure Humidity
00:00 +5°C° 0 mm 3 mps 747 mmHg 84%
01:00 +5°C° 0 mm 3 mps 747 mmHg 84%
02:00 +7°C° 0 mm 3 mps 747 mmHg 85%
03:00 +7°C° 0 mm 3 mps 747 mmHg 86%
04:00 +7°C° 0 mm 3 mps 746 mmHg 87%
05:00 +7°C° 0 mm 4 mps 746 mmHg 89%
06:00 +7°C° 0 mm 4 mps 746 mmHg 92%
07:00 +7°C° 0 mm 4 mps 746 mmHg 94%
08:00 +8°C° 0 mm 4 mps 746 mmHg 93%
09:00 +8°C° 0 mm 4 mps 746 mmHg 93%
10:00 +10°C° 0 mm 4 mps 746 mmHg 92%
11:00 +10°C° 0.2 mm 4 mps 746 mmHg 92%
12:00 +11°C° 0.2 mm 4 mps 746 mmHg 91%
13:00 +11°C° 0.2 mm 4 mps 746 mmHg 91%
14:00 +11°C° 0.1 mm 4 mps 745 mmHg 91%
15:00 +11°C° 0.1 mm 4 mps 745 mmHg 91%
16:00 +12°C° 0.1 mm 4 mps 745 mmHg 91%
17:00 +12°C° 0 mm 4 mps 745 mmHg 91%
18:00 +12°C° 0 mm 4 mps 746 mmHg 91%
19:00 +12°C° 0 mm 4 mps 746 mmHg 91%
20:00 +12°C° 0 mm 4 mps 746 mmHg 92%
21:00 +12°C° 0 mm 4 mps 746 mmHg 92%
22:00 +12°C° 0 mm 4 mps 746 mmHg 92%
23:00 +12°C° 0 mm 4 mps 746 mmHg 92%

3 November, Tuesday

Time Temperature Precipitation Wind Pressure Humidity
00:00 +12°C° 0 mm 4 mps 746 mmHg 92%
01:00 +12°C° 0 mm 4 mps 747 mmHg 92%
02:00 +12°C° 0 mm 4 mps 747 mmHg 91%
03:00 +13°C° 0 mm 4 mps 747 mmHg 91%
04:00 +13°C° 0 mm 4 mps 747 mmHg 90%
05:00 +12°C° 0 mm 4 mps 747 mmHg 91%
06:00 +12°C° 0 mm 3 mps 748 mmHg 92%
07:00 +12°C° 0 mm 3 mps 748 mmHg 93%
08:00 +13°C° 0 mm 3 mps 748 mmHg 88%
09:00 +14°C° 0 mm 4 mps 749 mmHg 83%
10:00 +15°C° 0 mm 4 mps 749 mmHg 79%
11:00 +17°C° 0 mm 4 mps 749 mmHg 78%
12:00 +17°C° 0 mm 3 mps 750 mmHg 77%
13:00 +17°C° 0 mm 3 mps 750 mmHg 77%
14:00 +17°C° 0 mm 2 mps 750 mmHg 79%
15:00 +16°C° 0 mm 2 mps 750 mmHg 81%
16:00 +16°C° 0 mm 1 mps 751 mmHg 83%
17:00 +15°C° 0 mm 1 mps 751 mmHg 85%
18:00 +14°C° 0 mm 1 mps 751 mmHg 87%
19:00 +14°C° 0 mm 1 mps 752 mmHg 89%
20:00 +13°C° 0 mm 1 mps 752 mmHg 90%
21:00 +13°C° 0 mm 2 mps 752 mmHg 92%
22:00 +13°C° 0 mm 2 mps 752 mmHg 93%
23:00 +13°C° 0 mm 2 mps 752 mmHg 93%
Show more